STARLINK-32185, 60341

Orbit data source: Space-Track

STARLINK-32185, 60341 is a payload satellite owned by SpaceX/Seattle (US) in LEO that was launched on Fri, 02 Aug 2024 UTC via an FALCON 9 launch vehicle from the Air Force Eastern Test Range (AFETR). Payload-class satellites include a variety of spacecraft equipped with specific instruments for various scientific and technological missions. These include communications satellites like Starlink; space stations such as the ISS; scientific satellites like the Hubble; Earth observation satellites from companies like Planet Labs, Umbra, and HawkEye 360; GPS; miniature CubeSats for education and research; and military/defense satellites.

Loading next visibility...
Identifier
60341, 2024-136N
Orbit
LEO
Country
Flag of USUS
Related business
Manufacturer
SpaceX/Seattle
Mission
Operational Commercial Communications
Bus & Motor
STARLINK V2M, Unknown motor
Mass
730 kg wet, ~700 kg dry
Launch date (UTC)
2024-08-02 (2 years ago)
Launch vehicle
FALCON 9
Launch site
Air Force Eastern Test Range (AFETR)
Object type
Payload
Rocket body
Debris
Shape & HBR
Box + 2 Pan, 17.7 m
Radar Cross Section
33.884 m², Large (>1 m²)

Expand to show TLE details & history
Last TLE update: 7 hours ago

TLE from 7 hours ago
0 STARLINK-32185
1 60341U 24136N   26125.10793036 -.00000839  00000-0 -16207-4 0  9997
2 60341  53.1591 173.5178 0000903 115.0892 245.0202 15.30189898 98307
Epoch: 2026-05-05T02:35Z
TLE epoch observation values (Epoch: 2026-05-05T02:35:25.183Z)
Latitude
-0.00004°
Longitude
-88.32468°
Altitude
476.406 km
Speed
7.629 km/s
True Right ascension
11h 34m 04s
True Declination
0° 00' 00"
Sunlit
Object was in full shadow at epoch
Visualization orbit readout
Latitude
Unknown
Longitude
Unknown
Altitude
Unknown
Speed
Unknown
Apparent Right ascension
Unknown
Apparent Declination
Unknown
Sunlit
N/A
Visualization observer readout
Local Sidereal Time
17:48:17
Azimuth
Unknown
Elevation
Unknown
Doppler factor
Unknown
Orbital elements
Apogee altitude
476.121 km
Perigee altitude
474.883 km
Semi-major axis
6,853.639 km
Eccentricity
0.00009
Inclination
53.1591°
RAAN
173.5178°
Arg. of periapsis
115.0892°
True anomaly
245.01082°
Mean anomaly
245.0202°
Eccentric anomaly
245.01551°
Mean motion
3.82526 °/min
Orbital period
94.11 mins
BSTAR
-0.000016207
Loading maneuver chart data...
Computing Atmospheric mass density...
Loading historical data...
Loading historical data...
Loading historical data...
Loading historical data...
Loading historical data...
Loading historical data...
Loading historical data...

Documentation

Showing up to 5 results
|